sat.trackr.live / text

‹ back to catalog

QIANFAN-10

NORAD 60388 · 2024-140K

PAYLOAD ACTIVE UNKNOWN

§ Identity

Operator
Country
PRC
Launch date
2024-08-06
Launch site
TAISC
Launch vehicle
Mass (kg)
RCS (m²)

External: N2YO · Heavens-Above · Gunter

§ Orbital elements

Epoch: 2026-05-25T03:31:08.971104Z

Period
106.59 min
Inclination
88.9730°
Eccentricity
0.0016337
Mean motion
13.51011753 rev/d
Perigee alt
1,056.4 km
Apogee alt
1,080.7 km
Semi-major
7,446.7 km
B*
1.2672e-4
RAAN
281.7488°
Arg perigee
68.0615°
Mean anomaly
292.2271°
Rev number
8,952

§ Raw data

QIANFAN-101 60388U 24140K   26145.14663161  .00000094  00000+0  12672-3 0  99952 60388  88.9730 281.7488 0016337  68.0615 292.2271 13.51011753 89522

JSON: /api/v1/satellites/60388 · /tle

For live sub-satellite position, see the globe view (requires WebGL).

§ Visibility from observer

Set your observer location to see the next 7 days of passes ≥ 10°. The values pass through the URL so the page stays shareable.

No JS? Fill the form by hand. The geolocation button needs JavaScript.